User: anonymous   Login
Location: Unspecified
(0.0000°N, 0.0000°E)
Time: 01:07:22
(UTC+00:00)
Language:

ONEWEB-0116 - Orbit

View from above orbital plane
View from above orbital plane
View from above satellite
View from above satellite

Ground track
Ground track

The orbit is defined by the following mean orbital elements,

1 48046U          26145.50186683 +.00000000 +00000-0 +31347-3 0 00001
2 48046  87.8951 324.7352 0001828  87.1388 272.9950 13.13471061    03
Epoch (UTC): 25 May 2026 12:02:41
Eccentricity: 0.0001828
inclination: 87.8951°
perigee height: 1208 km
apogee height: 1211 km
right ascension of ascending node: 324.7352°
argument of perigee: 87.1388°
revolutions per day: 13.13471061
mean anomaly at epoch: 272.9950°

The dashed part of the orbit path shows where the satellite is in the earth's shadow,  

DLR